Time,TemperatureF,DewpointF,PressureIn,WindDirection,WindDirectionDegrees,WindSpeedMPH,WindSpeedGustMPH,Humidity,HourlyPrecipIn,Conditions,Clouds,dailyrainin,SoftwareType,DateUTC
2013-02-19 00:00:00,29.8,16.5,30.26,SE,143,0.0,1.0,57,0.00,,,0.00,meteohub,2013-02-19 05:00:00,
2013-02-19 00:03:00,29.7,16.7,30.25,SE,143,0.0,1.0,58,0.00,,,0.00,meteohub,2013-02-19 05:03:00,
2013-02-19 00:08:00,29.7,16.7,30.25,SE,127,0.0,1.0,58,0.00,,,0.00,meteohub,2013-02-19 05:08:00,
2013-02-19 00:13:00,29.5,16.5,30.25,SE,127,0.0,1.0,58,0.00,,,0.00,meteohub,2013-02-19 05:13:00,
2013-02-19 00:18:00,29.1,16.5,30.25,SE,127,0.0,1.0,59,0.00,,,0.00,meteohub,2013-02-19 05:18:00,
2013-02-19 00:23:00,28.9,16.9,30.25,SE,129,0.0,0.0,60,0.00,,,0.00,meteohub,2013-02-19 05:23:00,
2013-02-19 00:28:00,28.9,16.9,30.26,SE,128,0.0,0.0,60,0.00,,,0.00,meteohub,2013-02-19 05:28:00,
2013-02-19 00:33:00,28.9,16.9,30.25,SE,128,0.0,1.0,60,0.00,,,0.00,meteohub,2013-02-19 05:33:00,
2013-02-19 00:38:00,28.9,16.9,30.25,SE,128,0.0,1.0,60,0.00,,,0.00,meteohub,2013-02-19 05:38:00,
2013-02-19 00:43:00,28.9,16.9,30.25,SE,129,0.0,1.0,60,0.00,,,0.00,meteohub,2013-02-19 05:43:00,
2013-02-19 00:48:00,28.9,16.9,30.25,SE,128,0.0,1.0,60,0.00,,,0.00,meteohub,2013-02-19 05:48:00,
2013-02-19 00:53:00,28.9,16.9,30.25,SE,130,0.0,1.0,60,0.00,,,0.00,meteohub,2013-02-19 05:53:00,
2013-02-19 00:58:00,28.9,16.3,30.25,SSW,204,0.0,1.0,59,0.00,,,0.00,meteohub,2013-02-19 05:58:00,
2013-02-19 01:03:00,28.9,16.3,30.25,SW,214,2.0,2.0,59,0.00,,,0.00,meteohub,2013-02-19 06:03:00,
2013-02-19 01:08:00,29.3,16.7,30.25,SSW,198,1.0,3.0,59,0.00,,,0.00,meteohub,2013-02-19 06:08:00,
2013-02-19 01:13:00,29.5,16.5,30.24,SSW,205,1.0,3.0,58,0.00,,,0.00,meteohub,2013-02-19 06:13:00,
2013-02-19 01:18:00,29.5,16.5,30.24,WSW,240,1.0,3.0,58,0.00,,,0.00,meteohub,2013-02-19 06:18:00,
2013-02-19 01:23:00,29.5,16.2,30.24,SW,226,0.0,2.0,57,0.00,,,0.00,meteohub,2013-02-19 06:23:00,
2013-02-19 01:28:00,29.5,16.5,30.24,SW,225,1.0,2.0,58,0.00,,,0.00,meteohub,2013-02-19 06:28:00,
2013-02-19 01:33:00,29.5,16.5,30.24,South,176,0.0,2.0,58,0.00,,,0.00,meteohub,2013-02-19 06:33:00,
2013-02-19 01:38:00,29.3,16.3,30.24,SSW,195,0.0,2.0,58,0.00,,,0.00,meteohub,2013-02-19 06:38:00,
2013-02-19 01:43:00,29.1,16.2,30.23,SSW,195,0.0,2.0,58,0.00,,,0.00,meteohub,2013-02-19 06:43:00,
2013-02-19 01:48:00,28.9,16.0,30.23,SSW,195,0.0,2.0,58,0.00,,,0.00,meteohub,2013-02-19 06:48:00,
2013-02-19 01:53:00,28.9,16.0,30.23,SSW,195,0.0,0.0,58,0.00,,,0.00,meteohub,2013-02-19 06:53:00,
2013-02-19 01:58:00,28.8,16.2,30.22,SSW,195,0.0,0.0,59,0.00,,,0.00,meteohub,2013-02-19 06:58:00,
2013-02-19 02:03:00,28.4,16.7,30.22,South,180,0.0,0.0,61,0.00,,,0.00,meteohub,2013-02-19 07:03:00,
2013-02-19 02:08:00,28.2,16.5,30.22,South,181,0.0,0.0,61,0.00,,,0.00,meteohub,2013-02-19 07:08:00,
2013-02-19 02:13:00,28.2,16.9,30.21,South,180,0.0,0.0,62,0.00,,,0.00,meteohub,2013-02-19 07:13:00,
2013-02-19 02:18:00,28.0,16.7,30.21,South,180,0.0,0.0,62,0.00,,,0.00,meteohub,2013-02-19 07:18:00,
2013-02-19 02:23:00,27.9,16.9,30.21,South,180,0.0,0.0,63,0.00,,,0.00,meteohub,2013-02-19 07:23:00,
2013-02-19 02:28:00,27.7,16.3,30.21,South,180,0.0,0.0,62,0.00,,,0.00,meteohub,2013-02-19 07:28:00,
2013-02-19 02:33:00,27.5,16.2,30.21,South,180,0.0,0.0,62,0.00,,,0.00,meteohub,2013-02-19 07:33:00,
2013-02-19 02:38:00,27.3,16.7,30.21,South,179,0.0,0.0,64,0.00,,,0.00,meteohub,2013-02-19 07:38:00,
2013-02-19 02:43:00,27.1,16.9,30.21,South,181,0.0,0.0,65,0.00,,,0.00,meteohub,2013-02-19 07:43:00,
2013-02-19 02:48:00,27.0,17.1,30.20,South,179,0.0,0.0,66,0.00,,,0.00,meteohub,2013-02-19 07:48:00,
2013-02-19 02:54:00,27.0,16.7,30.20,South,180,0.0,0.0,65,0.00,,,0.00,meteohub,2013-02-19 07:54:00,
2013-02-19 02:59:00,26.8,16.9,30.19,South,179,0.0,0.0,66,0.00,,,0.00,meteohub,2013-02-19 07:59:00,
2013-02-19 03:04:00,26.8,16.9,30.20,South,180,0.0,0.0,66,0.00,,,0.00,meteohub,2013-02-19 08:04:00,
2013-02-19 03:09:00,26.6,17.1,30.19,South,180,0.0,0.0,67,0.00,,,0.00,meteohub,2013-02-19 08:09:00,
2013-02-19 03:14:00,26.6,17.1,30.19,South,180,0.0,0.0,67,0.00,,,0.00,meteohub,2013-02-19 08:14:00,
2013-02-19 03:19:00,26.4,17.2,30.19,South,180,0.0,0.0,68,0.00,,,0.00,meteohub,2013-02-19 08:19:00,
2013-02-19 03:24:00,26.2,16.7,30.19,South,180,0.0,0.0,67,0.00,,,0.00,meteohub,2013-02-19 08:24:00,
2013-02-19 03:29:00,26.2,17.1,30.18,South,180,0.0,0.0,68,0.00,,,0.00,meteohub,2013-02-19 08:29:00,
2013-02-19 07:05:00,24.6,19.0,30.10,SSE,163,0.0,0.0,79,0.00,,,0.00,meteohub,2013-02-19 12:05:00,
2013-02-19 07:10:00,24.6,19.0,30.10,SW,236,0.0,0.0,79,0.00,,,0.00,meteohub,2013-02-19 12:10:00,
2013-02-19 07:15:00,24.6,19.4,30.10,SW,236,0.0,0.0,80,0.00,,,0.00,meteohub,2013-02-19 12:15:00,
2013-02-19 07:20:00,24.6,19.4,30.11,SW,236,0.0,0.0,80,0.00,,,0.00,meteohub,2013-02-19 12:20:00,
2013-02-19 07:25:00,25.0,19.9,30.11,SW,236,0.0,0.0,81,0.00,,,0.00,meteohub,2013-02-19 12:25:00,
2013-02-19 07:30:00,25.3,20.3,30.11,SW,236,0.0,0.0,81,0.00,,,0.00,meteohub,2013-02-19 12:30:00,
2013-02-19 07:35:00,25.9,20.8,30.11,SW,236,0.0,0.0,81,0.00,,,0.00,meteohub,2013-02-19 12:35:00,
2013-02-19 07:40:00,26.1,21.0,30.11,SW,236,0.0,1.0,81,0.00,,,0.00,meteohub,2013-02-19 12:40:00,
2013-02-19 07:45:00,26.4,21.0,30.11,SW,236,0.0,1.0,80,0.00,,,0.00,meteohub,2013-02-19 12:45:00,
2013-02-19 07:50:00,27.1,22.1,30.11,SW,236,0.0,1.0,81,0.00,,,0.00,meteohub,2013-02-19 12:50:00,
2013-02-19 07:55:00,27.7,22.3,30.11,SW,236,0.0,0.0,80,0.00,,,0.00,meteohub,2013-02-19 12:55:00,
2013-02-19 08:00:00,28.2,22.6,30.11,SW,236,0.0,0.0,79,0.00,,,0.00,meteohub,2013-02-19 13:00:00,
2013-02-19 08:05:00,28.9,23.2,30.11,SW,236,0.0,0.0,79,0.00,,,0.00,meteohub,2013-02-19 13:05:00,
2013-02-19 08:10:00,30.0,24.6,30.10,SSW,194,0.0,1.0,80,0.00,,,0.00,meteohub,2013-02-19 13:10:00,
2013-02-19 08:15:00,31.3,25.2,30.10,SSW,203,1.0,1.0,78,0.00,,,0.00,meteohub,2013-02-19 13:15:00,
2013-02-19 08:20:00,32.4,25.3,30.09,SSE,159,1.0,3.0,75,0.00,,,0.00,meteohub,2013-02-19 13:20:00,
2013-02-19 08:25:00,33.1,25.3,30.09,SE,128,0.0,3.0,73,0.00,,,0.00,meteohub,2013-02-19 13:25:00,
2013-02-19 08:30:00,33.6,25.5,30.09,SSW,195,3.0,3.0,72,0.00,,,0.00,meteohub,2013-02-19 13:30:00,
2013-02-19 08:35:00,34.2,25.7,30.09,SE,126,1.0,5.0,71,0.00,,,0.00,meteohub,2013-02-19 13:35:00,
2013-02-19 08:40:00,34.3,25.5,30.09,SW,229,2.0,5.0,70,0.00,,,0.00,meteohub,2013-02-19 13:40:00,
2013-02-19 08:45:00,34.5,25.7,30.09,SSW,207,1.0,5.0,70,0.00,,,0.00,meteohub,2013-02-19 13:45:00,
2013-02-19 08:50:00,34.9,26.1,30.08,SE,130,1.0,5.0,70,0.00,,,0.00,meteohub,2013-02-19 13:50:00,
2013-02-19 08:55:00,35.1,26.2,30.08,South,170,1.0,4.0,70,0.00,,,0.00,meteohub,2013-02-19 13:55:00,
2013-02-19 09:00:00,35.4,26.2,30.08,SSW,202,0.0,4.0,69,0.00,,,0.00,meteohub,2013-02-19 14:00:00,
2013-02-19 09:05:00,36.0,26.8,30.08,SSE,150,1.0,4.0,69,0.00,,,0.00,meteohub,2013-02-19 14:05:00,
2013-02-19 09:10:00,36.3,26.8,30.07,SSW,211,0.0,4.0,68,0.00,,,0.00,meteohub,2013-02-19 14:10:00,
2013-02-19 09:15:00,37.0,27.5,30.06,WSW,243,2.0,3.0,68,0.00,,,0.00,meteohub,2013-02-19 14:15:00,
2013-02-19 09:20:00,37.9,28.0,30.06,ESE,117,1.0,4.0,67,0.00,,,0.00,meteohub,2013-02-19 14:20:00,
2013-02-19 09:25:00,38.5,27.7,30.06,South,181,2.0,4.0,65,0.00,,,0.00,meteohub,2013-02-19 14:25:00,
2013-02-19 09:30:00,39.0,27.9,30.06,SSW,211,4.0,5.0,64,0.00,,,0.00,meteohub,2013-02-19 14:30:00,
2013-02-19 09:35:00,39.7,28.6,30.05,SSW,211,4.0,5.0,64,0.00,,,0.00,meteohub,2013-02-19 14:35:00,
2013-02-19 09:40:00,40.3,28.2,30.04,SW,217,6.0,6.0,62,0.00,,,0.00,meteohub,2013-02-19 14:40:00,
2013-02-19 09:45:00,40.3,28.2,30.05,WSW,246,5.0,6.0,62,0.00,,,0.00,meteohub,2013-02-19 14:45:00,
2013-02-19 09:50:00,40.6,28.6,30.04,SSW,198,3.0,6.0,62,0.00,,,0.00,meteohub,2013-02-19 14:50:00,
2013-02-19 09:55:00,41.2,28.4,30.04,SW,236,3.0,6.0,60,0.00,,,0.00,meteohub,2013-02-19 14:55:00,
2013-02-19 10:00:00,41.5,28.2,30.04,SSW,205,4.0,8.0,59,0.00,,,0.00,meteohub,2013-02-19 15:00:00,
2013-02-19 10:05:00,41.9,28.6,30.04,West,264,2.0,8.0,59,0.00,,,0.00,meteohub,2013-02-19 15:05:00,
2013-02-19 10:10:00,42.8,28.6,30.03,WNW,291,3.0,9.0,57,0.00,,,0.00,meteohub,2013-02-19 15:10:00,
2013-02-19 10:15:00,43.5,28.9,30.03,SSE,167,6.0,9.0,56,0.00,,,0.00,meteohub,2013-02-19 15:15:00,
2013-02-19 10:20:00,44.1,28.9,30.02,SSW,212,10.0,11.0,55,0.00,,,0.00,meteohub,2013-02-19 15:20:00,
2013-02-19 10:25:00,44.6,28.9,30.01,SSW,209,8.0,16.0,54,0.00,,,0.00,meteohub,2013-02-19 15:25:00,
2013-02-19 10:31:00,45.1,28.9,30.02,SSW,212,4.0,16.0,53,0.00,,,0.00,meteohub,2013-02-19 15:31:00,
2013-02-19 10:36:00,45.7,29.1,30.02,SE,132,3.0,16.0,52,0.00,,,0.00,meteohub,2013-02-19 15:36:00,
2013-02-19 10:41:00,45.9,29.3,30.03,SSW,198,11.0,14.0,52,0.00,,,0.00,meteohub,2013-02-19 15:41:00,
2013-02-19 10:46:00,46.0,29.8,30.02,West,271,1.0,12.0,53,0.00,,,0.00,meteohub,2013-02-19 15:46:00,
2013-02-19 10:51:00,46.6,30.4,30.02,SW,231,4.0,16.0,53,0.00,,,0.00,meteohub,2013-02-19 15:51:00,
2013-02-19 10:56:00,46.9,30.7,30.02,SSW,212,1.0,16.0,53,0.00,,,0.00,meteohub,2013-02-19 15:56:00,
2013-02-19 11:01:00,47.7,31.3,30.02,SSW,198,3.0,16.0,53,0.00,,,0.00,meteohub,2013-02-19 16:01:00,
2013-02-19 11:06:00,47.7,31.3,30.01,SW,236,6.0,11.0,53,0.00,,,0.00,meteohub,2013-02-19 16:06:00,
2013-02-19 11:11:00,47.8,32.0,30.01,SW,225,5.0,11.0,54,0.00,,,0.00,meteohub,2013-02-19 16:11:00,
2013-02-19 11:16:00,48.0,32.2,30.00,SW,219,5.0,12.0,54,0.00,,,0.00,meteohub,2013-02-19 16:16:00,
2013-02-19 11:21:00,48.4,32.5,29.99,SSW,201,4.0,15.0,54,0.00,,,0.00,meteohub,2013-02-19 16:21:00,
2013-02-19 11:26:00,48.4,32.9,29.99,WSW,249,7.0,15.0,55,0.00,,,0.00,meteohub,2013-02-19 16:26:00,
2013-02-19 11:31:00,48.7,33.3,29.99,West,274,7.0,15.0,55,0.00,,,0.00,meteohub,2013-02-19 16:31:00,
2013-02-19 11:36:00,48.9,33.1,29.98,WSW,242,5.0,14.0,54,0.00,,,0.00,meteohub,2013-02-19 16:36:00,
2013-02-19 11:41:00,49.3,33.3,29.99,West,266,2.0,10.0,54,0.00,,,0.00,meteohub,2013-02-19 16:41:00,
2013-02-19 11:46:00,49.5,33.4,29.98,SSE,165,2.0,10.0,54,0.00,,,0.00,meteohub,2013-02-19 16:46:00,
2013-02-19 11:51:00,49.6,33.3,29.98,WSW,253,3.0,11.0,53,0.00,,,0.00,meteohub,2013-02-19 16:51:00,
2013-02-19 11:56:00,49.8,33.4,29.98,West,260,3.0,11.0,53,0.00,,,0.00,meteohub,2013-02-19 16:56:00,
2013-02-19 12:01:00,49.8,32.9,29.98,West,269,4.0,11.0,52,0.00,,,0.00,meteohub,2013-02-19 17:01:00,
2013-02-19 12:06:00,49.8,32.9,29.98,West,268,2.0,11.0,52,0.00,,,0.00,meteohub,2013-02-19 17:06:00,
2013-02-19 12:11:00,49.8,32.4,29.98,SSW,195,13.0,13.0,51,0.00,,,0.00,meteohub,2013-02-19 17:11:00,
2013-02-19 12:16:00,49.1,34.5,29.99,SSW,207,5.0,26.0,57,0.00,,,0.00,meteohub,2013-02-19 17:16:00,
2013-02-19 12:21:00,47.7,36.1,29.98,WNW,283,4.0,26.0,64,0.00,,,0.00,meteohub,2013-02-19 17:21:00,
2013-02-19 12:26:00,46.8,37.2,29.98,West,273,3.0,26.0,69,0.00,,,0.00,meteohub,2013-02-19 17:26:00,
2013-02-19 12:31:00,45.9,37.0,29.98,West,281,6.0,21.0,71,0.00,,,0.00,meteohub,2013-02-19 17:31:00,
2013-02-19 12:36:00,45.3,37.2,29.97,SSW,198,2.0,11.0,73,0.00,,,0.00,meteohub,2013-02-19 17:36:00,
2013-02-19 12:41:00,45.0,37.6,29.96,WSW,253,4.0,9.0,75,0.01,,,0.01,meteohub,2013-02-19 17:41:00,
2013-02-19 12:46:00,44.4,37.9,29.96,SSW,203,5.0,9.0,78,0.01,,,0.01,meteohub,2013-02-19 17:46:00,
2013-02-19 12:51:00,44.2,38.1,29.96,SW,221,2.0,9.0,79,0.02,,,0.02,meteohub,2013-02-19 17:51:00,
2013-02-19 12:56:00,44.2,38.1,29.95,SW,232,3.0,10.0,79,0.02,,,0.02,meteohub,2013-02-19 17:56:00,
2013-02-19 13:01:00,44.1,38.7,29.95,WNW,290,1.0,10.0,81,0.03,,,0.03,meteohub,2013-02-19 18:01:00,
2013-02-19 13:06:00,44.1,38.8,29.94,SW,232,2.0,10.0,82,0.03,,,0.03,meteohub,2013-02-19 18:06:00,
2013-02-19 13:11:00,43.9,39.0,29.93,West,268,3.0,7.0,83,0.03,,,0.03,meteohub,2013-02-19 18:11:00,
2013-02-19 13:16:00,43.9,39.4,29.93,SSW,209,1.0,7.0,84,0.03,,,0.03,meteohub,2013-02-19 18:16:00,
2013-02-19 13:21:00,43.9,39.4,29.92,SW,225,2.0,7.0,84,0.04,,,0.04,meteohub,2013-02-19 18:21:00,
2013-02-19 13:26:00,43.7,39.6,29.92,SSW,204,2.0,7.0,85,0.05,,,0.05,meteohub,2013-02-19 18:26:00,
2013-02-19 13:31:00,43.7,39.7,29.92,WSW,257,1.0,6.0,86,0.05,,,0.05,meteohub,2013-02-19 18:31:00,
2013-02-19 13:36:00,43.5,39.9,29.92,South,186,2.0,6.0,87,0.06,,,0.06,meteohub,2013-02-19 18:36:00,
2013-02-19 13:41:00,43.5,39.9,29.91,SW,233,3.0,5.0,87,0.05,,,0.06,meteohub,2013-02-19 18:41:00,
2013-02-19 13:46:00,43.5,40.3,29.91,SW,222,2.0,5.0,88,0.05,,,0.06,meteohub,2013-02-19 18:46:00,
2013-02-19 13:51:00,43.5,40.3,29.90,SE,139,2.0,5.0,88,0.05,,,0.07,meteohub,2013-02-19 18:51:00,
2013-02-19 13:56:00,43.5,40.3,29.90,SSW,201,2.0,3.0,88,0.05,,,0.07,meteohub,2013-02-19 18:56:00,
2013-02-19 14:01:00,43.7,40.6,29.90,South,169,2.0,4.0,89,0.04,,,0.07,meteohub,2013-02-19 19:01:00,
2013-02-19 14:06:00,43.7,40.6,29.89,SW,221,1.0,4.0,89,0.05,,,0.08,meteohub,2013-02-19 19:06:00,
2013-02-19 14:11:00,43.7,40.6,29.89,SW,224,2.0,4.0,89,0.05,,,0.08,meteohub,2013-02-19 19:11:00,
2013-02-19 14:16:00,43.9,40.8,29.89,SSW,205,6.0,6.0,89,0.05,,,0.08,meteohub,2013-02-19 19:16:00,
2013-02-19 14:22:00,43.9,40.8,29.89,SW,218,2.0,6.0,89,0.05,,,0.09,meteohub,2013-02-19 19:22:00,
2013-02-19 14:27:00,44.1,41.4,29.88,SW,222,3.0,6.0,90,0.04,,,0.09,meteohub,2013-02-19 19:27:00,
2013-02-19 14:32:00,44.1,41.0,29.88,SW,215,5.0,8.0,89,0.04,,,0.09,meteohub,2013-02-19 19:32:00,
2013-02-19 14:37:00,44.2,41.2,29.87,West,259,4.0,8.0,89,0.03,,,0.09,meteohub,2013-02-19 19:37:00,
2013-02-19 14:42:00,44.4,41.7,29.86,SSW,212,2.0,10.0,90,0.04,,,0.10,meteohub,2013-02-19 19:42:00,
2013-02-19 14:47:00,44.4,41.7,29.86,SW,228,3.0,10.0,90,0.04,,,0.10,meteohub,2013-02-19 19:47:00,
2013-02-19 14:52:00,44.4,41.9,29.86,SW,215,1.0,10.0,91,0.03,,,0.10,meteohub,2013-02-19 19:52:00,
2013-02-19 14:57:00,44.4,41.9,29.85,SW,214,1.0,10.0,91,0.04,,,0.11,meteohub,2013-02-19 19:57:00,
2013-02-19 15:02:00,44.4,41.9,29.84,ESE,121,5.0,7.0,91,0.04,,,0.11,meteohub,2013-02-19 20:02:00,
2013-02-19 15:07:00,44.4,42.3,29.84,SSE,158,1.0,7.0,92,0.03,,,0.11,meteohub,2013-02-19 20:07:00,
2013-02-19 15:12:00,44.4,42.3,29.83,SE,146,2.0,7.0,92,0.03,,,0.11,meteohub,2013-02-19 20:12:00,
2013-02-19 15:17:00,44.4,42.3,29.83,ESE,110,1.0,7.0,92,0.04,,,0.12,meteohub,2013-02-19 20:17:00,
2013-02-19 15:22:00,44.4,42.4,29.82,SSE,155,1.0,7.0,93,0.03,,,0.12,meteohub,2013-02-19 20:22:00,
2013-02-19 15:27:00,44.6,42.6,29.81,South,170,2.0,7.0,93,0.03,,,0.12,meteohub,2013-02-19 20:27:00,
2013-02-19 15:32:00,44.8,42.8,29.81,WSW,240,2.0,7.0,93,0.03,,,0.12,meteohub,2013-02-19 20:32:00,
2013-02-19 15:37:00,45.0,43.3,29.81,South,172,6.0,9.0,94,0.03,,,0.12,meteohub,2013-02-19 20:37:00,
2013-02-19 15:42:00,45.1,43.5,29.81,SSE,166,5.0,10.0,94,0.02,,,0.12,meteohub,2013-02-19 20:42:00,
2013-02-19 15:47:00,45.3,43.7,29.80,South,175,7.0,10.0,94,0.02,,,0.12,meteohub,2013-02-19 20:47:00,
2013-02-19 15:52:00,45.7,43.7,29.80,SSW,205,3.0,11.0,93,0.02,,,0.12,meteohub,2013-02-19 20:52:00,
2013-02-19 15:57:00,45.9,43.9,29.79,SSW,194,4.0,12.0,93,0.01,,,0.12,meteohub,2013-02-19 20:57:00,
2013-02-19 16:02:00,46.0,44.1,29.79,SSW,195,6.0,13.0,93,0.01,,,0.12,meteohub,2013-02-19 21:02:00,
2013-02-19 16:07:00,46.0,43.9,29.78,West,269,5.0,13.0,92,0.01,,,0.12,meteohub,2013-02-19 21:07:00,
2013-02-19 16:12:00,46.2,44.1,29.78,WSW,250,7.0,13.0,92,0.02,,,0.13,meteohub,2013-02-19 21:12:00,
2013-02-19 16:17:00,46.4,44.2,29.78,SSW,210,3.0,15.0,92,0.01,,,0.13,meteohub,2013-02-19 21:17:00,
2013-02-19 16:22:00,46.4,44.2,29.78,West,281,5.0,15.0,92,0.01,,,0.13,meteohub,2013-02-19 21:22:00,
2013-02-19 16:27:00,46.2,44.1,29.78,WSW,240,4.0,15.0,92,0.01,,,0.13,meteohub,2013-02-19 21:27:00,
2013-02-19 16:32:00,46.4,44.2,29.78,SW,221,4.0,11.0,92,0.01,,,0.13,meteohub,2013-02-19 21:32:00,
2013-02-19 16:37:00,46.4,44.2,29.77,WSW,240,7.0,11.0,92,0.01,,,0.13,meteohub,2013-02-19 21:37:00,
2013-02-19 16:42:00,46.4,44.2,29.77,WSW,246,6.0,11.0,92,0.01,,,0.13,meteohub,2013-02-19 21:42:00,
2013-02-19 16:47:00,46.4,44.2,29.77,West,274,2.0,14.0,92,0.02,,,0.14,meteohub,2013-02-19 21:47:00,
2013-02-19 16:52:00,46.4,44.2,29.77,West,260,2.0,14.0,92,0.02,,,0.14,meteohub,2013-02-19 21:52:00,
2013-02-19 16:57:00,46.4,44.2,29.77,SSW,212,5.0,14.0,92,0.02,,,0.14,meteohub,2013-02-19 21:57:00,
2013-02-19 17:02:00,46.2,44.2,29.77,SSW,198,4.0,13.0,93,0.02,,,0.14,meteohub,2013-02-19 22:02:00,
2013-02-19 17:07:00,46.2,44.2,29.77,South,186,2.0,13.0,93,0.03,,,0.15,meteohub,2013-02-19 22:07:00,
2013-02-19 17:12:00,46.0,44.1,29.77,SW,214,2.0,13.0,93,0.02,,,0.15,meteohub,2013-02-19 22:12:00,
2013-02-19 17:17:00,46.0,44.1,29.77,West,260,3.0,13.0,93,0.03,,,0.16,meteohub,2013-02-19 22:17:00,
2013-02-19 17:22:00,45.9,44.2,29.77,WNW,288,4.0,13.0,94,0.03,,,0.16,meteohub,2013-02-19 22:22:00,
2013-02-19 17:27:00,45.9,44.2,29.77,West,263,1.0,11.0,94,0.04,,,0.17,meteohub,2013-02-19 22:27:00,
2013-02-19 17:32:00,45.9,44.2,29.77,West,278,3.0,10.0,94,0.04,,,0.17,meteohub,2013-02-19 22:32:00,
2013-02-19 17:37:00,45.7,44.1,29.76,WNW,288,3.0,9.0,94,0.05,,,0.18,meteohub,2013-02-19 22:37:00,
2013-02-19 17:42:00,45.7,44.1,29.76,SSW,212,4.0,9.0,94,0.05,,,0.18,meteohub,2013-02-19 22:42:00,
2013-02-19 17:47:00,45.7,44.1,29.76,SW,226,0.0,9.0,94,0.04,,,0.18,meteohub,2013-02-19 22:47:00,
2013-02-19 17:52:00,45.5,43.9,29.76,SW,236,1.0,7.0,94,0.04,,,0.18,meteohub,2013-02-19 22:52:00,
2013-02-19 17:57:00,45.5,44.2,29.76,SSW,195,3.0,7.0,95,0.05,,,0.19,meteohub,2013-02-19 22:57:00,
2013-02-19 18:02:00,45.3,44.1,29.77,SSW,200,2.0,6.0,95,0.05,,,0.19,meteohub,2013-02-19 23:02:00,
2013-02-19 18:07:00,45.3,44.1,29.77,SSW,195,1.0,8.0,95,0.04,,,0.19,meteohub,2013-02-19 23:07:00,
2013-02-19 18:12:00,45.3,44.1,29.75,South,184,1.0,8.0,95,0.04,,,0.19,meteohub,2013-02-19 23:12:00,
2013-02-19 18:17:00,45.3,44.1,29.74,West,278,1.0,8.0,95,0.04,,,0.20,meteohub,2013-02-19 23:17:00,
2013-02-19 18:22:00,45.3,44.1,29.75,WNW,294,3.0,6.0,95,0.05,,,0.21,meteohub,2013-02-19 23:22:00,
2013-02-19 18:27:00,45.3,44.1,29.75,SW,233,3.0,6.0,95,0.04,,,0.21,meteohub,2013-02-19 23:27:00,
2013-02-19 18:32:00,45.3,44.1,29.75,SW,217,2.0,7.0,95,0.04,,,0.21,meteohub,2013-02-19 23:32:00,
2013-02-19 18:37:00,45.1,43.5,29.75,SW,231,1.0,8.0,94,0.03,,,0.21,meteohub,2013-02-19 23:37:00,
2013-02-19 18:42:00,45.1,43.5,29.75,WSW,256,1.0,8.0,94,0.03,,,0.21,meteohub,2013-02-19 23:42:00,
2013-02-19 18:47:00,45.1,43.5,29.75,WSW,242,0.0,8.0,94,0.03,,,0.21,meteohub,2013-02-19 23:47:00,
2013-02-19 18:52:00,45.1,43.5,29.75,West,269,1.0,5.0,94,0.03,,,0.21,meteohub,2013-02-19 23:52:00,
2013-02-19 18:57:00,45.1,43.9,29.75,WSW,240,1.0,5.0,95,0.02,,,0.21,meteohub,2013-02-19 23:57:00,
2013-02-19 19:02:00,45.3,43.7,29.74,WNW,288,4.0,6.0,94,0.02,,,0.21,meteohub,2013-02-20 00:02:00,
2013-02-19 19:07:00,45.3,43.7,29.75,West,259,2.0,7.0,94,0.02,,,0.21,meteohub,2013-02-20 00:07:00,
2013-02-19 19:12:00,45.3,43.7,29.74,West,280,6.0,7.0,94,0.02,,,0.21,meteohub,2013-02-20 00:12:00,
2013-02-19 19:17:00,45.3,43.7,29.74,West,277,4.0,9.0,94,0.01,,,0.21,meteohub,2013-02-20 00:17:00,
2013-02-19 19:22:00,45.5,43.9,29.74,WNW,288,3.0,9.0,94,0.00,,,0.21,meteohub,2013-02-20 00:22:00,
2013-02-19 19:27:00,45.5,43.9,29.74,WNW,288,5.0,10.0,94,0.00,,,0.21,meteohub,2013-02-20 00:27:00,
2013-02-19 19:32:00,45.5,43.9,29.74,West,264,9.0,10.0,94,0.00,,,0.21,meteohub,2013-02-20 00:32:00,
2013-02-19 19:37:00,45.5,43.5,29.74,WNW,293,5.0,11.0,93,0.00,,,0.21,meteohub,2013-02-20 00:37:00,
2013-02-19 19:42:00,45.3,43.3,29.74,West,259,2.0,11.0,93,0.00,,,0.21,meteohub,2013-02-20 00:42:00,
2013-02-19 19:47:00,45.3,43.3,29.74,West,280,7.0,11.0,93,0.00,,,0.21,meteohub,2013-02-20 00:47:00,
2013-02-19 19:52:00,45.1,43.2,29.74,West,271,7.0,12.0,93,0.01,,,0.22,meteohub,2013-02-20 00:52:00,
2013-02-19 19:57:00,45.1,43.5,29.74,West,281,6.0,12.0,94,0.01,,,0.22,meteohub,2013-02-20 00:57:00,
2013-02-19 20:02:00,45.1,43.2,29.74,WNW,284,7.0,12.0,93,0.01,,,0.22,meteohub,2013-02-20 01:02:00,
2013-02-19 20:07:00,44.8,42.8,29.74,West,281,6.0,15.0,93,0.01,,,0.22,meteohub,2013-02-20 01:07:00,
2013-02-19 20:12:00,44.8,42.8,29.74,WNW,302,4.0,15.0,93,0.01,,,0.22,meteohub,2013-02-20 01:12:00,
2013-02-19 20:17:00,44.4,42.4,29.74,West,277,4.0,15.0,93,0.01,,,0.22,meteohub,2013-02-20 01:17:00,
2013-02-19 20:22:00,44.2,42.1,29.74,West,277,10.0,12.0,92,0.02,,,0.23,meteohub,2013-02-20 01:22:00,
2013-02-19 20:27:00,44.2,42.1,29.74,West,281,4.0,14.0,92,0.02,,,0.23,meteohub,2013-02-20 01:27:00,
2013-02-19 20:32:00,44.1,41.9,29.74,WNW,291,4.0,14.0,92,0.02,,,0.23,meteohub,2013-02-20 01:32:00,
2013-02-19 20:37:00,43.9,41.7,29.74,WNW,298,8.0,14.0,92,0.02,,,0.23,meteohub,2013-02-20 01:37:00,
2013-02-19 20:42:00,43.9,41.7,29.74,West,278,7.0,12.0,92,0.02,,,0.23,meteohub,2013-02-20 01:42:00,
2013-02-19 20:47:00,43.9,41.4,29.74,WNW,283,4.0,12.0,91,0.02,,,0.23,meteohub,2013-02-20 01:47:00,
2013-02-19 20:52:00,43.9,41.4,29.74,WSW,252,8.0,12.0,91,0.01,,,0.23,meteohub,2013-02-20 01:52:00,
2013-02-19 20:56:00,43.7,41.0,29.74,WNW,284,9.0,11.0,90,0.01,,,0.23,meteohub,2013-02-20 01:56:00,
2013-02-19 21:01:00,43.5,40.8,29.75,WNW,287,13.0,13.0,90,0.01,,,0.23,meteohub,2013-02-20 02:01:00,
2013-02-19 21:06:00,43.5,40.8,29.75,WNW,297,8.0,15.0,90,0.01,,,0.23,meteohub,2013-02-20 02:06:00,
2013-02-19 21:12:00,43.3,40.3,29.75,West,263,7.0,15.0,89,0.01,,,0.23,meteohub,2013-02-20 02:12:00,
2013-02-19 21:17:00,43.2,39.6,29.76,West,276,7.0,17.0,87,0.01,,,0.23,meteohub,2013-02-20 02:17:00,
2013-02-19 21:22:00,43.0,39.4,29.75,NW,315,7.0,17.0,87,0.00,,,0.23,meteohub,2013-02-20 02:22:00,
2013-02-19 21:27:00,42.8,38.7,29.75,WNW,291,6.0,17.0,85,0.00,,,0.23,meteohub,2013-02-20 02:27:00,
2013-02-19 21:31:00,42.6,38.5,29.75,WNW,294,7.0,17.0,85,0.00,,,0.23,meteohub,2013-02-20 02:31:00,
2013-02-19 21:37:00,42.4,37.9,29.76,WNW,300,8.0,16.0,84,0.00,,,0.23,meteohub,2013-02-20 02:37:00,
2013-02-19 21:42:00,42.3,38.1,29.76,West,269,11.0,12.0,85,0.00,,,0.23,meteohub,2013-02-20 02:42:00,
2013-02-19 21:47:00,42.3,37.8,29.77,WNW,301,6.0,14.0,84,0.00,,,0.23,meteohub,2013-02-20 02:47:00,
2013-02-19 21:52:00,42.1,37.6,29.77,West,264,15.0,15.0,84,0.00,,,0.23,meteohub,2013-02-20 02:52:00,
2013-02-19 21:57:00,42.1,37.0,29.77,WNW,295,13.0,15.0,82,0.00,,,0.23,meteohub,2013-02-20 02:57:00,
2013-02-19 22:02:00,41.9,36.9,29.77,West,276,9.0,15.0,82,0.00,,,0.23,meteohub,2013-02-20 03:02:00,
2013-02-19 22:07:00,41.7,36.3,29.77,WNW,300,11.0,15.0,81,0.00,,,0.23,meteohub,2013-02-20 03:07:00,
2013-02-19 22:12:00,41.5,35.8,29.77,WNW,291,8.0,18.0,80,0.00,,,0.23,meteohub,2013-02-20 03:12:00,
2013-02-19 22:17:00,41.4,35.4,29.77,WNW,291,8.0,18.0,79,0.00,,,0.23,meteohub,2013-02-20 03:17:00,
2013-02-19 22:22:00,41.4,35.4,29.78,NW,311,9.0,19.0,79,0.00,,,0.23,meteohub,2013-02-20 03:22:00,
2013-02-19 22:27:00,41.2,34.9,29.77,WNW,288,13.0,19.0,78,0.00,,,0.23,meteohub,2013-02-20 03:27:00,
2013-02-19 22:32:00,40.8,34.2,29.78,WSW,248,10.0,29.0,77,0.00,,,0.23,meteohub,2013-02-20 03:32:00,
2013-02-19 22:37:00,40.6,33.3,29.78,WNW,293,15.0,29.0,75,0.00,,,0.23,meteohub,2013-02-20 03:37:00,
2013-02-19 22:42:00,40.6,33.1,29.78,WNW,293,14.0,29.0,74,0.00,,,0.23,meteohub,2013-02-20 03:42:00,
2013-02-19 22:47:00,40.3,32.7,29.79,WNW,301,8.0,25.0,74,0.00,,,0.23,meteohub,2013-02-20 03:47:00,
2013-02-19 22:52:00,39.9,32.0,29.79,NW,315,8.0,25.0,73,0.00,,,0.23,meteohub,2013-02-20 03:52:00,
2013-02-19 22:57:00,39.7,31.1,29.79,WNW,293,16.0,22.0,71,0.00,,,0.23,meteohub,2013-02-20 03:57:00,
2013-02-19 23:02:00,39.6,30.9,29.79,WNW,290,8.0,22.0,71,0.00,,,0.23,meteohub,2013-02-20 04:02:00,
2013-02-19 23:07:00,39.6,30.9,29.79,WNW,295,8.0,22.0,71,0.00,,,0.23,meteohub,2013-02-20 04:07:00,
2013-02-19 23:12:00,39.2,30.6,29.79,WNW,285,11.0,20.0,71,0.00,,,0.23,meteohub,2013-02-20 04:12:00,
2013-02-19 23:17:00,39.2,30.2,29.79,WNW,290,8.0,20.0,70,0.00,,,0.23,meteohub,2013-02-20 04:17:00,
2013-02-19 23:22:00,39.0,30.0,29.79,WNW,288,6.0,20.0,70,0.00,,,0.23,meteohub,2013-02-20 04:22:00,
2013-02-19 23:27:00,38.8,29.5,29.79,West,277,15.0,17.0,69,0.00,,,0.23,meteohub,2013-02-20 04:27:00,
2013-02-19 23:32:00,38.8,29.5,29.79,WNW,292,7.0,17.0,69,0.00,,,0.23,meteohub,2013-02-20 04:32:00,
2013-02-19 23:37:00,38.7,28.9,29.80,WNW,287,7.0,18.0,68,0.00,,,0.23,meteohub,2013-02-20 04:37:00,
2013-02-19 23:42:00,38.7,28.9,29.80,NW,321,13.0,18.0,68,0.00,,,0.23,meteohub,2013-02-20 04:42:00,
2013-02-19 23:47:00,38.5,28.0,29.80,NW,304,15.0,20.0,66,0.00,,,0.23,meteohub,2013-02-20 04:47:00,
2013-02-19 23:52:00,38.5,28.0,29.80,NW,304,11.0,20.0,66,0.00,,,0.23,meteohub,2013-02-20 04:52:00,
2013-02-19 23:57:00,38.1,27.9,29.80,NNW,336,8.0,20.0,66,0.00,,,0.23,meteohub,2013-02-20 04:57:00,